Fort Atkinson, Wisconsin, United States (53538)
Lat: 42.93N, Lon: 88.84W
Wx Zone: WIZ064
Local Info
Past Weather Observations for Wednesday, December 17, 2014

NOTE: This archive is for the closest National Weather Service station to Fort Atkinson. Information may differ from the station used for current weather conditions.

Click here for Long-term Archive

Time Weather Temperature Dewpoint Humidity Pressure Winds Precip Visibility
23:55
Clear
18°F / -8°C 14°F / -10°C 86% 30.27 in
(1025 mb)
NW 5.8 mph
(NW 9 kph)
- 10SM
23:35
Clear
18°F / -8°C 14°F / -10°C 86% 30.27 in
(1025 mb)
SSW 5.8 mph
(SSW 9 kph)
- 10SM
23:15
Clear
18°F / -8°C 16°F / -9°C 93% 30.27 in
(1025 mb)
WNW 4.6 mph
(WNW 7 kph)
- 10SM
22:55
Clear
18°F / -8°C 16°F / -9°C 93% 30.27 in
(1025 mb)
NW 4.6 mph
(NW 7 kph)
- 10SM
22:35
Clear
18°F / -8°C 16°F / -9°C 93% 30.27 in
(1025 mb)
NW 4.6 mph
(NW 7 kph)
- 10SM
22:15
Clear
18°F / -8°C 14°F / -10°C 86% 30.27 in
(1025 mb)
W 4.6 mph
(W 7 kph)
- 10SM
21:55
Clear
19°F / -7°C 14°F / -10°C 79% 30.27 in
(1025 mb)
NW 4.6 mph
(NW 7 kph)
- 10SM
21:35
Clear
19°F / -7°C 16°F / -9°C 86% 30.27 in
(1025 mb)
WNW 4.6 mph
(WNW 7 kph)
- 10SM
21:15
Clear
19°F / -7°C 16°F / -9°C 86% 30.27 in
(1025 mb)
W 4.6 mph
(W 7 kph)
- 10SM
20:55
Clear
19°F / -7°C 16°F / -9°C 86% 30.27 in
(1025 mb)
W 4.6 mph
(W 7 kph)
- 10SM
20:35
Clear
19°F / -7°C 16°F / -9°C 86% 30.27 in
(1025 mb)
W 5.8 mph
(W 9 kph)
- 10SM
20:15
Clear
19°F / -7°C 16°F / -9°C 86% 30.27 in
(1025 mb)
W 5.8 mph
(W 9 kph)
- 10SM
19:55
Partly Cloudy
19°F / -7°C 16°F / -9°C 86% 30.27 in
(1025 mb)
W 6.9 mph
(W 11 kph)
- 10SM
19:35
Clear
19°F / -7°C 16°F / -9°C 86% 30.27 in
(1025 mb)
W 3.5 mph
(W 6 kph)
- 10SM
19:15
Clear
21°F / -6°C 16°F / -9°C 80% 30.24 in
(1024 mb)
WNW 6.9 mph
(WNW 11 kph)
- 10SM
18:55
Partly Cloudy
21°F / -6°C 16°F / -9°C 80% 30.24 in
(1024 mb)
NW 5.8 mph
(NW 9 kph)
- 10SM
18:35
Mostly Cloudy
21°F / -6°C 16°F / -9°C 80% 30.24 in
(1024 mb)
NW 5.8 mph
(NW 9 kph)
- 10SM
18:15
Overcast
21°F / -6°C 16°F / -9°C 80% 30.24 in
(1024 mb)
NNW 9.2 mph
(NNW 15 kph)
- 10SM
17:55
Overcast
23°F / -5°C 16°F / -9°C 74% 30.24 in
(1024 mb)
NW 10.4 mph
(NW 17 kph)
- 10SM
17:35
Overcast
21°F / -6°C 16°F / -9°C 80% 30.24 in
(1024 mb)
NW 9.2 mph
(NW 15 kph)
- 10SM
17:15
Overcast
21°F / -6°C 16°F / -9°C 80% 30.24 in
(1024 mb)
NNW 9.2 mph
(NNW 15 kph)
- 10SM
16:55
Mostly Cloudy
21°F / -6°C 16°F / -9°C 80% 30.24 in
(1024 mb)
NNW 8.1 mph
(NNW 13 kph)
- 10SM
16:35
Partly Cloudy
21°F / -6°C 16°F / -9°C 80% 30.21 in
(1023 mb)
NNW 6.9 mph
(NNW 11 kph)
- 10SM
16:15
Partly Cloudy
23°F / -5°C 14°F / -10°C 68% 30.21 in
(1023 mb)
NW 10.4 mph
(NW 17 kph)
- 10SM
15:55
Mostly Cloudy
23°F / -5°C 16°F / -9°C 74% 30.21 in
(1023 mb)
NW 11.5 mph
(NW 19 kph)
- 10SM
15:35
Overcast
23°F / -5°C 16°F / -9°C 74% 30.21 in
(1023 mb)
NW 13.8 mph
(NW 22 kph)
- 10SM
15:15
Overcast
25°F / -4°C 16°F / -9°C 69% 30.21 in
(1023 mb)
NW 10.4 mph
(NW 17 kph)
- 10SM
14:55
Overcast
25°F / -4°C 16°F / -9°C 69% 30.21 in
(1023 mb)
NW 13.8 mph
(NW 22 kph)
- 10SM
14:35
Overcast
25°F / -4°C 16°F / -9°C 69% 30.21 in
(1023 mb)
NW 9.2 mph
(NW 15 kph)
- 10SM
14:15
Overcast
25°F / -4°C 16°F / -9°C 69% 30.18 in
(1022 mb)
NW 15 mph
(NW 24 kph)
- 10SM
13:55
Overcast
25°F / -4°C 18°F / -8°C 74% 30.18 in
(1022 mb)
WNW 12.7 mph
(WNW 20 kph)
- 10SM
13:35
Overcast
25°F / -4°C 18°F / -8°C 74% 30.18 in
(1022 mb)
W 12.7 mph
(W 20 kph)
- 10SM
13:15
Overcast
25°F / -4°C 18°F / -8°C 74% 30.18 in
(1022 mb)
W 9.2 mph
(W 15 kph)
- 10SM
12:55
Overcast
25°F / -4°C 18°F / -8°C 74% 30.18 in
(1022 mb)
NW 10.4 mph
(NW 17 kph)
- 10SM
12:35
Overcast
25°F / -4°C 16°F / -9°C 69% 30.18 in
(1022 mb)
NW 10.4 mph
(NW 17 kph)
- 10SM
12:15
Overcast
25°F / -4°C 18°F / -8°C 74% 30.18 in
(1022 mb)
NW 11.5 mph
(NW 19 kph)
- 10SM
11:55
Overcast
23°F / -5°C 18°F / -8°C 80% 30.18 in
(1022 mb)
NW 9.2 mph
(NW 15 kph)
- 10SM
11:35
Overcast
25°F / -4°C 18°F / -8°C 74% 30.21 in
(1023 mb)
NW 10.4 mph
(NW 17 kph)
- 10SM
11:15
Overcast
23°F / -5°C 18°F / -8°C 80% 30.21 in
(1023 mb)
WNW 8.1 mph
(WNW 13 kph)
- 10SM
10:55
Overcast
23°F / -5°C 18°F / -8°C 80% 30.21 in
(1023 mb)
NW 9.2 mph
(NW 15 kph)
- 10SM
10:35
Overcast
Light Snow
23°F / -5°C 18°F / -8°C 80% 30.21 in
(1023 mb)
NW 10.4 mph
(NW 17 kph)
- 7SM
10:15
Overcast
23°F / -5°C 18°F / -8°C 80% 30.21 in
(1023 mb)
NW 11.5 mph
(NW 19 kph)
- 10SM
09:55
Overcast
23°F / -5°C 18°F / -8°C 80% 30.24 in
(1024 mb)
WNW 10.4 mph
(WNW 17 kph)
- 10SM
09:35
Overcast
23°F / -5°C 18°F / -8°C 80% 30.21 in
(1023 mb)
WNW 9.2 mph
(WNW 15 kph)
- 10SM
09:15
Overcast
23°F / -5°C 18°F / -8°C 80% 30.21 in
(1023 mb)
WNW 11.5 mph
(WNW 19 kph)
- 10SM
08:55
Overcast
23°F / -5°C 18°F / -8°C 80% 30.21 in
(1023 mb)
W 9.2 mph
(W 15 kph)
- 10SM
08:35
Overcast
23°F / -5°C 18°F / -8°C 80% 30.21 in
(1023 mb)
NW 9.2 mph
(NW 15 kph)
- 10SM
08:15
Overcast
23°F / -5°C 18°F / -8°C 80% 30.21 in
(1023 mb)
NW 10.4 mph
(NW 17 kph)
- 10SM
07:55
Overcast
23°F / -5°C 18°F / -8°C 80% 30.21 in
(1023 mb)
NW 11.5 mph
(NW 19 kph)
- 10SM
07:35
Overcast
23°F / -5°C 18°F / -8°C 80% 30.18 in
(1022 mb)
NW 15 mph
(NW 24 kph)
- 10SM
07:15
Overcast
23°F / -5°C 18°F / -8°C 80% 30.18 in
(1022 mb)
NW 10.4 mph
(NW 17 kph)
- 10SM
06:55
Overcast
23°F / -5°C 18°F / -8°C 80% 30.18 in
(1022 mb)
NW 11.5 mph
(NW 19 kph)
- 10SM
06:35
Overcast
25°F / -4°C 18°F / -8°C 74% 30.18 in
(1022 mb)
WNW 9.2 mph
(WNW 15 kph)
- 10SM
06:15
Overcast
25°F / -4°C 19°F / -7°C 80% 30.18 in
(1022 mb)
NW 11.5 mph
(NW 19 kph)
- 10SM
05:55
Overcast
25°F / -4°C 19°F / -7°C 80% 30.18 in
(1022 mb)
W 6.9 mph
(W 11 kph)
- 10SM
05:35
Overcast
25°F / -4°C 18°F / -8°C 74% 30.18 in
(1022 mb)
WNW 11.5 mph
(WNW 19 kph)
- 10SM
05:15
Overcast
25°F / -4°C 19°F / -7°C 80% 30.18 in
(1022 mb)
W 11.5 mph
(W 19 kph)
- 10SM
04:55
Overcast
25°F / -4°C 19°F / -7°C 80% 30.15 in
(1021 mb)
WNW 8.1 mph
(WNW 13 kph)
- 10SM
04:35
Overcast
25°F / -4°C 18°F / -8°C 74% 30.15 in
(1021 mb)
NW 6.9 mph
(NW 11 kph)
- 10SM
04:15
Overcast
25°F / -4°C 18°F / -8°C 74% 30.15 in
(1021 mb)
NW 10.4 mph
(NW 17 kph)
- 10SM
03:55
Overcast
25°F / -4°C 18°F / -8°C 74% 30.15 in
(1021 mb)
NW 10.4 mph
(NW 17 kph)
- 10SM
03:35
Overcast
25°F / -4°C 18°F / -8°C 74% 30.15 in
(1021 mb)
WNW 10.4 mph
(WNW 17 kph)
- 10SM
03:15
Overcast
25°F / -4°C 18°F / -8°C 74% 30.15 in
(1021 mb)
NW 10.4 mph
(NW 17 kph)
- 10SM
02:55
Overcast
25°F / -4°C 18°F / -8°C 74% 30.15 in
(1021 mb)
WNW 12.7 mph
(WNW 20 kph)
- 10SM
02:35
Overcast
25°F / -4°C 18°F / -8°C 74% 30.15 in
(1021 mb)
NW 8.1 mph
(NW 13 kph)
- 10SM
02:15
Overcast
25°F / -4°C 18°F / -8°C 74% 30.15 in
(1021 mb)
NW 10.4 mph
(NW 17 kph)
- 10SM
01:55
Overcast
25°F / -4°C 18°F / -8°C 74% 30.15 in
(1021 mb)
WNW 15 mph
(WNW 24 kph)
- 10SM
01:35
Overcast
25°F / -4°C 19°F / -7°C 80% 30.15 in
(1021 mb)
NW 10.4 mph
(NW 17 kph)
- 10SM
01:15
Overcast
25°F / -4°C 19°F / -7°C 80% 30.12 in
(1020 mb)
NW 15 mph
(NW 24 kph)
- 10SM
00:55
Overcast
25°F / -4°C 19°F / -7°C 80% 30.12 in
(1020 mb)
WNW 9.2 mph
(WNW 15 kph)
- 10SM
00:35
Overcast
27°F / -3°C 19°F / -7°C 74% 30.12 in
(1020 mb)
WNW 12.7 mph
(WNW 20 kph)
- 10SM
00:15
Overcast
27°F / -3°C 19°F / -7°C 74% 30.12 in
(1020 mb)
WNW 12.7 mph
(WNW 20 kph)
- 10SM
Time Weather Temperature Dewpoint Humidity Pressure Winds Precip Visibility


Weather for websites

WeatherForYou.com, LLC is not responsible for any damages or problems caused by this service. Current weather conditions are obtained from the closest station including government and personal stations which may have varying degrees of accuracy. Weather forecasts are derived from the NOAA NDFD. Like all things, this site belongs to Jesus Christ... He just trusts me to maintain it. If you have any questions or comments email webmaster@weatherforyou.com

Copyright © 2014, WeatherForYou.com LLC. All rights reserved.